DateTimeUTC,F1_A11,F1_S11,BsB_S11,BsG_S11,BsR_S11,BbsB_S11,BbsG_S11,BbsR_S11,BaB_A11,BaG_A11,BaR_A11,Tu_S11,T_S11,Uu_S11,U_S11,P_S11,T1_A11
2021-10-29T08:00:00Z,00000200,21000000,,,,,,,-000.19,-000.08,-000.36,18.8,25.6,,00.0,0645.3,31.1
2021-10-29T08:01:00Z,00000200,21000000,,,,,,,0000.60,0000.61,0000.55,18.8,25.7,,00.0,0645.3,31.2
2021-10-29T08:02:00Z,00000200,21000000,,,,,,,0000.01,0000.20,0000.07,18.8,25.7,,00.0,0645.3,31.1
2021-10-29T08:03:00Z,00000200,61000000,,,,,,,0000.74,0000.27,0000.34,18.8,25.7,,00.0,0645.3,31.1
2021-10-29T08:04:00Z,00000200,41000000,0001.41,0000.04,0000.47,0000.31,0000.28,0000.41,0000.92,0000.76,0000.62,19.2,25.6,,00.0,0646.2,31.1
2021-10-29T08:05:00Z,00000200,01000000,0000.47,0000.13,0000.44,0000.28,-000.10,0000.35,0000.05,0000.20,0000.47,19.3,25.6,,00.0,0646.2,31.1
2021-10-29T08:06:00Z,00000200,01000000,0000.86,0000.18,0000.10,0000.58,-000.04,-000.24,0000.14,0000.12,-000.50,19.3,25.6,,00.0,0646.2,31.2
2021-10-29T08:07:00Z,00000200,01000000,0000.71,0000.16,0000.20,0000.32,0000.32,0000.15,0000.84,0000.78,0000.92,19.3,25.7,,00.0,0646.2,31.2
2021-10-29T08:08:00Z,00000200,01000000,0000.53,0000.42,0000.33,0000.84,0000.10,-000.09,0001.06,0000.97,0000.75,19.2,25.6,,00.0,0646.2,31.1
2021-10-29T08:09:00Z,00000200,01000000,0000.73,0000.35,0000.41,0000.26,0000.39,0000.21,0001.09,0000.77,0000.71,19.1,25.6,,00.0,0646.2,31.1
2021-10-29T08:10:00Z,00000200,01000000,0000.61,0000.41,0000.22,0000.19,-000.02,0000.54,0001.36,0000.97,0000.86,19.0,25.5,,00.0,0646.1,31.1
2021-10-29T08:11:00Z,00000200,01000000,0000.60,0000.01,0000.14,0000.42,0000.20,0000.28,-000.66,0000.06,-000.29,18.9,25.5,,00.0,0646.1,31.1
2021-10-29T08:12:00Z,00000200,01000000,0000.74,0000.06,0000.23,0000.81,0000.15,-000.04,-000.05,-000.31,-000.38,18.9,25.4,,00.0,0646.1,31.1
2021-10-29T08:13:00Z,00000200,01000000,0000.20,0000.54,0000.41,0000.75,0000.13,0000.03,0000.00,0000.11,0000.45,18.9,25.4,,00.0,0646.1,31.1
2021-10-29T08:14:00Z,00000200,01000000,0000.47,0000.05,0000.18,-000.07,0000.06,0000.16,0000.03,0000.11,-000.12,19.0,25.4,,00.0,0646.1,31.1
2021-10-29T08:15:00Z,00000200,01000000,0000.97,0000.60,0000.40,0000.04,0000.21,0000.36,-000.17,-000.54,0000.05,19.0,25.5,,00.0,0646.2,31.1
2021-10-29T08:16:00Z,00000200,01000000,0000.34,0000.18,-000.07,0000.59,0000.13,-000.11,0000.80,0000.61,0000.21,19.1,25.5,,00.0,0646.2,31.1
2021-10-29T08:17:00Z,00000200,01000000,0000.32,0000.14,0000.07,0000.05,0000.18,-000.01,-000.27,0000.08,-000.14,19.1,25.5,,00.0,0646.2,31.2
2021-10-29T08:18:00Z,00000200,01000000,0000.37,0000.13,0000.22,0000.40,0000.00,0000.30,-000.57,-000.57,-000.15,19.2,25.5,,00.0,0646.3,31.2
2021-10-29T08:19:00Z,00000200,01000000,0000.43,-000.07,0000.07,0000.25,0000.11,-000.03,-000.13,-000.47,-000.39,19.2,25.6,,00.0,0646.3,31.1
2021-10-29T08:20:00Z,00000200,01000000,0000.77,0000.19,0000.33,-000.15,-000.04,0000.42,0000.41,0001.04,0000.35,19.3,25.6,,00.0,0646.3,31.1
2021-10-29T08:21:00Z,00000200,01000000,0000.28,0000.27,0000.32,-000.13,-000.22,0000.29,0001.10,0000.41,0000.65,19.3,25.6,,00.0,0646.3,31.2
2021-10-29T08:22:00Z,00000200,01000000,0000.71,0000.23,0000.02,0000.36,0000.07,0000.54,0000.69,0001.22,0000.61,19.4,25.6,,00.0,0646.3,31.2
2021-10-29T08:23:00Z,00000200,01000000,0000.66,0000.42,-000.01,0000.07,-000.24,0000.08,0000.62,0000.20,0000.15,19.4,25.7,,00.0,0646.3,31.2
2021-10-29T08:24:00Z,00000200,01000000,0000.32,0000.42,0000.20,0000.66,0000.19,0000.05,0000.64,0000.81,0000.97,19.4,25.7,,00.0,0646.2,31.1
2021-10-29T08:25:00Z,00000200,01000000,0000.68,-000.11,0000.05,-000.05,0000.15,-000.04,0000.92,0000.46,0000.30,19.3,25.6,,00.0,0646.3,31.1
2021-10-29T08:26:00Z,00000200,01000000,0000.54,0000.18,0000.48,0000.93,0000.35,0000.08,-000.03,0000.27,0000.38,19.2,25.6,,00.0,0646.3,31.1
2021-10-29T08:27:00Z,00000200,01000000,-000.30,0000.31,0000.33,0000.43,0000.09,0000.05,0000.56,0000.13,0000.06,19.1,25.5,,00.0,0646.3,31.1
2021-10-29T08:28:00Z,00000200,01000000,0001.25,0000.66,0000.38,-000.02,-000.02,0000.04,-000.13,-000.25,-000.12,19.1,25.5,,00.0,0646.3,31.1
2021-10-29T08:29:00Z,00000200,01000000,-000.15,-000.11,0000.23,0000.07,0000.08,0000.23,-000.57,-000.50,-000.54,19.2,25.6,,00.0,0646.3,31.1
2021-10-29T08:30:00Z,00000200,01000000,0000.56,0000.25,0000.40,0001.06,0000.46,0000.14,-000.49,0000.14,-000.20,19.2,25.6,,00.0,0646.3,31.1
2021-10-29T08:31:00Z,00000200,01000000,0000.65,-000.01,0000.07,0000.10,0000.22,0000.29,0000.54,0000.20,0000.26,19.3,25.6,,00.0,0646.3,31.1
2021-10-29T08:32:00Z,00000200,01000000,0000.64,0000.52,0000.13,0000.28,0000.26,-000.02,0000.24,0000.17,0000.23,19.3,25.6,,00.0,0646.4,31.2
2021-10-29T08:33:00Z,00000200,01000000,0000.65,0000.25,0000.18,-000.46,0000.21,-000.07,0000.40,0000.18,0000.26,19.3,25.6,,00.0,0646.3,31.1
2021-10-29T08:34:00Z,00000200,01000000,-000.13,0000.17,0000.25,0000.63,0000.07,0000.03,0000.58,0000.49,0000.29,19.3,25.7,,00.0,0646.3,31.1
2021-10-29T08:35:00Z,00000200,01000000,0000.59,0000.46,-000.02,0000.20,0000.02,-000.17,-000.40,-000.37,-000.02,19.2,25.6,,00.0,0646.3,31.1
2021-10-29T08:36:00Z,00000200,01000000,0000.27,0000.04,0000.28,0000.16,-000.13,-000.10,-000.14,0000.32,-000.05,19.1,25.6,,00.0,0646.4,31.1
2021-10-29T08:37:00Z,00000200,01000000,-000.69,-000.06,-000.15,0000.37,0000.02,0000.25,-000.63,-000.73,-000.29,19.1,25.5,,00.0,0646.4,31.1
2021-10-29T08:38:00Z,00000200,01000000,0000.11,0000.02,0000.02,0000.26,0000.20,-000.04,0000.23,0000.31,-000.23,19.0,25.5,,00.0,0646.4,31.1
2021-10-29T08:39:00Z,00000200,01000000,0000.77,-000.00,0000.06,0000.72,0000.18,0000.20,0000.77,0000.33,0000.57,18.9,25.4,,00.0,0646.4,31.1
2021-10-29T08:40:00Z,00000200,01000000,0000.13,0000.05,0000.06,-000.05,0000.09,0000.00,-000.38,-000.14,-000.19,18.8,25.4,,00.0,0646.4,31.0
2021-10-29T08:41:00Z,00000200,01000000,0000.29,-000.03,0000.32,0001.02,0000.13,-000.26,-000.30,-000.26,-000.39,18.7,25.4,,00.0,0646.4,31.0
2021-10-29T08:42:00Z,00000200,01000000,-000.53,0000.17,0000.32,0000.26,0000.01,0000.10,0000.06,-000.38,-000.24,18.7,25.3,,00.0,0646.4,31.1
2021-10-29T08:43:00Z,00000200,01000000,-000.24,0000.45,-000.01,0000.45,0000.10,-000.15,-000.99,-000.33,-000.37,18.7,25.3,,00.0,0646.5,31.1
2021-10-29T08:44:00Z,00000200,01000000,-000.52,-000.14,-000.07,-000.25,0000.40,0000.33,-000.16,-000.18,0000.02,18.8,25.3,,00.0,0646.4,31.1
2021-10-29T08:45:00Z,00000200,01000000,-000.14,0000.05,-000.14,0001.09,-000.04,-000.17,-000.39,-000.45,-000.37,18.8,25.3,,00.0,0646.5,31.1
2021-10-29T08:46:00Z,00000200,01000000,0000.85,0000.07,0000.54,0000.42,0000.01,0000.17,-000.12,-000.19,-000.47,18.9,25.4,,00.0,0646.5,31.1
2021-10-29T08:47:00Z,00000200,01000000,0000.31,-000.37,0000.30,-000.11,-000.03,0000.24,-000.21,-000.31,-000.10,18.9,25.4,,00.0,0646.6,31.1
2021-10-29T08:48:00Z,00000200,01000000,-000.09,-000.25,0000.39,0000.68,0000.08,0000.14,-000.32,-000.47,-000.27,19.0,25.4,,00.0,0646.6,31.1
2021-10-29T08:49:00Z,00000200,01000000,0000.10,-000.01,0000.17,0000.39,-000.19,0000.04,-000.40,0000.16,-000.15,19.0,25.4,,00.0,0646.7,31.1
2021-10-29T08:50:00Z,00000200,01000000,-000.25,0000.12,-000.14,0000.42,-000.19,-000.21,-000.20,-000.41,0000.05,19.1,25.4,,00.0,0646.6,31.1
2021-10-29T08:51:00Z,00000200,01000000,0000.25,0000.08,0000.06,0000.63,-000.27,0000.09,0000.31,0000.20,0000.29,19.1,25.5,,00.0,0646.6,31.1
2021-10-29T08:52:00Z,00000200,01000000,-000.11,0000.04,0000.21,0000.46,-000.07,0000.21,-000.20,0000.00,-000.23,19.0,25.5,,00.0,0646.6,31.1
2021-10-29T08:53:00Z,00000200,01000000,-000.45,0000.16,0000.30,0000.30,-000.05,0000.17,-000.30,-000.37,-000.26,18.9,25.4,,00.0,0646.6,31.1
2021-10-29T08:54:00Z,00000200,01000000,0000.32,0000.19,0000.31,0000.25,-000.01,0000.20,-000.18,0000.20,-000.10,18.8,25.4,,00.0,0646.6,31.1
2021-10-29T08:55:00Z,00000200,01000000,0000.33,0000.03,0000.19,0000.63,-000.07,-000.26,-000.22,-000.74,-000.26,18.8,25.3,,00.0,0646.7,31.1
2021-10-29T08:56:00Z,00000200,01000000,0000.11,0000.24,0000.59,0001.13,0000.21,0000.17,-000.17,-000.33,-000.32,18.7,25.3,,00.0,0646.7,31.1
2021-10-29T08:57:00Z,00000200,41000000,,,,,,,0000.52,0001.17,0000.69,18.7,25.3,,00.0,0646.8,31.1
2021-10-29T08:58:00Z,00000200,61000000,,,,,,,-000.29,-000.83,-000.44,18.4,25.4,,00.0,0645.7,31.1
2021-10-29T08:59:00Z,00000200,21000000,,,,,,,-000.24,-000.33,-000.39,18.4,25.5,,00.0,0645.7,31.1
